Flag for Norway Weather past 2 weeks in Randaberg, Norway

Now
50 °F

Overcast.


Feels Like: 48 °F
Forecast: 45 / 53 °F
Wind: 5 mph from Southeast

Location: Stavanger / Sola

Current Time: Oct 21, 2014 at 4:11:21 AM

Latest Report: Oct 21, 2014 at 3:00 AM


Visibility: 7 mi

Pressure: 29.54 "Hg

Humidity: 87%

Dew point: 46 °F

Location of RandabergLocation

Historic Weather in Randaberg — Graph

°F

Randaberg temperature yesterday

Maximum temperature yesterday: 56 °F (at 1:00 AM)
Minimum temperature yesterday: 49 °F (at 10:00 PM)
Average temperature yesterday: 53 °F

Past Weeks' High & Low Weather Summary

 TemperatureHumidityPressure
High61 °F (Oct 6, 3:00 PM)98% (Oct 12, 9:00 AM)30.07 "Hg (Oct 12, 9:00 AM)
Low34 °F (Oct 17, 2:00 AM)46% (Oct 16, 4:00 PM)29.15 "Hg (Oct 8, 5:00 AM)
Average51 °F79%29.73 "Hg
* Reported Oct 6 2:00 AM — Oct 21 2:00 AM, Randaberg, Weather by CustomWeather, © 2014

Note: Actual official high and low records may vary slightly from our data, if they occured in-between our weather recording intervals... More about our weather records

Advertising

Randaberg weather history for previous 24 hours

 ConditionsComfort  
Time TempWeatherWind HumidityBarometerVisibility
2:00 AM
Oct 21
49 °FOvercast.5 mph87%29.56 "Hg7 mi
1:00 AM49 °FOvercast.3 mph89%29.58 "Hg7 mi
12:00 AM49 °FOvercast.3 mph89%29.60 "Hg7 mi
11:00 PM
Oct 20
49 °FOvercast.3 mph89%29.62 "Hg7 mi
10:00 PM49 °FOvercast.3 mph88%29.63 "Hg7 mi
9:00 PM50 °FPassing clouds.1 mph82%29.63 "Hg9 mi
8:00 PM52 °FOvercast.2 mph76%29.64 "Hg11 mi
7:00 PM52 °FOvercast.5 mph78%29.65 "Hg11 mi
6:00 PM53 °FOvercast.7 mph77%29.64 "Hg9 mi
5:00 PM53 °FOvercast.8 mph79%29.63 "Hg9 mi
4:00 PM52 °FRain showers. Overcast.7 mph87%29.61 "Hg6 mi
3:00 PM52 °FOvercast.10 mph88%29.60 "Hg6 mi
2:00 PM53 °FRain showers. Overcast.10 mph92%29.59 "Hg3 mi
1:00 PM53 °FRain showers. Overcast.7 mph94%29.58 "Hg2 mi
12:00 PM55 °FOvercast.8 mph89%29.57 "Hg6 mi
11:00 AM54 °FRain showers. Overcast.8 mph93%29.54 "Hg3 mi
10:00 AM55 °FOvercast.10 mph85%29.50 "Hg6 mi
9:00 AM55 °FRain showers. Partly sunny.9 mph88%29.47 "Hg7 mi
8:00 AM54 °FLots of rain. Passing clouds.10 mph94%29.44 "Hg4 mi
7:00 AM55 °FOvercast.10 mph93%29.41 "Hg5 mi
5:00 AM54 °FRain showers. Low clouds.9 mph94%29.41 "Hg2 mi
4:00 AM53 °FRain showers. Low clouds.10 mph92%29.41 "Hg4 mi
Weather by CustomWeather, © 2014

See weather overviewHow to use our weather pages